This is the latest recevied weather packets stored in our database for station/object NI4CE-10. If no packets are shown the sender has not sent any weather packets the latest 10 day(s).
| Time | Temp. | Humidity | Pressure | Rain* | Wind** | Luminosity | Snow |
|---|---|---|---|---|---|---|---|
| 1777745438 | 31.11° C | 100% | 1014.3 hPa | 0 mm | - | - | - |
| 1777745165 | 30.56° C | 100% | 1014.3 hPa | 0 mm | - | - | - |
| 1777744865 | 31.11° C | 100% | 1014.3 hPa | 0 mm | - | - | - |
| 1777744565 | 31.67° C | 100% | 1014.4 hPa | 0 mm | - | - | - |
| 1777744311 | 32.22° C | 100% | 1014.1 hPa | 0 mm | - | - | - |
| 1777744265 | 32.22° C | 100% | 1014.1 hPa | 0 mm | - | - | - |
| 1777743965 | 32.22° C | 100% | 1014.2 hPa | 0 mm | - | - | - |
| 1777743665 | 31.11° C | 100% | 1014.2 hPa | 0 mm | - | - | - |
| 1777743451 | 30.56° C | 100% | 1014.5 hPa | 0 mm | - | - | - |
| 1777743365 | 31.67° C | 100% | 1014.1 hPa | 0 mm | - | - | - |
| 1777743065 | 31.11° C | 100% | 1014.2 hPa | 0 mm | - | - | - |
| 1777742765 | 31.11° C | 100% | 1014.3 hPa | 0 mm | - | - | - |
| 1777742465 | 30.56° C | 100% | 1014.2 hPa | 0 mm | - | - | - |
| 1777742165 | 30.56° C | 100% | 1014.4 hPa | 0 mm | - | - | - |
| 1777741865 | 31.11° C | 100% | 1014.5 hPa | 0 mm | - | - | - |
| 1777741565 | 31.11° C | 100% | 1014.5 hPa | 0 mm | - | - | - |
| 1777741265 | 30.56° C | 100% | 1014.5 hPa | 0 mm | - | - | - |
| 1777741247 | 32.22° C | 100% | 1014.4 hPa | 0 mm | - | - | - |
| 1777740965 | 30.56° C | 100% | 1014.4 hPa | 0 mm | - | - | - |
| 1777740665 | 31.11° C | 100% | 1014.5 hPa | 0 mm | - | - | - |
| 1777740365 | 31.11° C | 100% | 1014.5 hPa | 0 mm | - | - | - |
| 1777740065 | 31.11° C | 100% | 1014.5 hPa | 0 mm | - | - | - |
| 1777739765 | 32.22° C | 100% | 1014.4 hPa | 0 mm | - | - | - |
| 1777739743 | 32.22° C | 100% | 1014.4 hPa | 0 mm | - | - | - |
| 1777739465 | 32.22° C | 100% | 1014.4 hPa | 0 mm | - | - | - |
* Rain latest hour (hover to see other rain measurements)
** Current wind speed in m/s (hover to see current wind gust speed)